TimeMDT,TemperatureF,Dew PointF,Humidity,Sea Level PressureIn,VisibilityMPH,Wind Direction,Wind SpeedMPH,Gust SpeedMPH,PrecipitationIn,Events,Conditions,WindDirDegrees,DateUTC
12:56 AM,52.0,32.9,48,29.92,10.0,Calm,Calm,-,N/A,,Clear,0,2013-08-05 06:56:00
1:56 AM,50.9,34.0,52,29.92,10.0,East,5.8,-,N/A,,Clear,90,2013-08-05 07:56:00
2:56 AM,54.9,32.0,42,29.90,10.0,ESE,3.5,-,N/A,,Clear,120,2013-08-05 08:56:00
3:56 AM,52.0,28.0,40,29.90,10.0,East,6.9,-,N/A,,Clear,100,2013-08-05 09:56:00
4:56 AM,52.0,28.0,40,29.90,10.0,East,5.8,-,N/A,,Clear,90,2013-08-05 10:56:00
5:56 AM,46.9,32.9,58,29.93,10.0,Calm,Calm,-,N/A,,Clear,0,2013-08-05 11:56:00
6:56 AM,50.0,34.0,54,29.93,10.0,WSW,3.5,-,N/A,,Clear,250,2013-08-05 12:56:00
7:56 AM,57.9,34.0,41,29.93,10.0,Calm,Calm,-,N/A,,Clear,0,2013-08-05 13:56:00
8:56 AM,65.8,32.0,28,29.95,10.0,Calm,Calm,-,N/A,,Clear,0,2013-08-05 14:56:00
9:56 AM,75.9,36.9,24,29.92,10.0,Variable,3.5,-,N/A,,Clear,0,2013-08-05 15:56:00
10:56 AM,81.0,30.0,16,29.92,10.0,SSW,10.4,-,N/A,,Clear,210,2013-08-05 16:56:00
11:56 AM,83.8,26.1,12,29.91,10.0,SSW,13.8,-,N/A,,Clear,210,2013-08-05 17:56:00
12:56 PM,84.9,32.9,15,29.90,10.0,SW,11.5,-,N/A,,Clear,220,2013-08-05 18:56:00
1:56 PM,86.9,27.1,11,29.87,10.0,SW,10.4,23.0,N/A,,Clear,230,2013-08-05 19:56:00
2:56 PM,88.0,17.1,7,29.84,10.0,West,19.6,24.2,N/A,,Clear,260,2013-08-05 20:56:00
3:56 PM,88.9,16.2,7,29.82,10.0,WSW,15.0,21.9,N/A,,Clear,250,2013-08-05 21:56:00
4:56 PM,88.0,19.0,8,29.81,10.0,WSW,16.1,26.5,N/A,,Clear,250,2013-08-05 22:56:00
5:56 PM,86.9,23.0,10,29.82,10.0,WSW,18.4,-,N/A,,Clear,250,2013-08-05 23:56:00
6:56 PM,83.8,28.0,13,29.81,10.0,West,9.2,-,N/A,,Clear,260,2013-08-06 00:56:00
7:56 PM,77.9,31.1,18,29.80,10.0,SSW,12.7,-,N/A,,Clear,210,2013-08-06 01:56:00
8:56 PM,68.0,36.9,32,29.82,10.0,SE,6.9,-,N/A,,Clear,140,2013-08-06 02:56:00
9:56 PM,64.9,34.0,32,29.80,10.0,SSE,6.9,-,N/A,,Clear,150,2013-08-06 03:56:00
10:56 PM,63.0,34.0,34,29.80,10.0,SSE,10.4,-,N/A,,Clear,150,2013-08-06 04:56:00
11:56 PM,61.0,34.0,36,29.79,10.0,SSE,9.2,-,N/A,,Clear,150,2013-08-06 05:56:00